TimeMDT,TemperatureF,Dew PointF,Humidity,Sea Level PressureIn,VisibilityMPH,Wind Direction,Wind SpeedMPH,Gust SpeedMPH,PrecipitationIn,Events,Conditions,WindDirDegrees,DateUTC
12:55 AM,33.1,7.0,34,30.60,10.0,East,3.5,-,N/A,,Clear,100,2013-05-02 06:55:00
1:55 AM,30.9,5.0,33,30.62,10.0,Calm,Calm,-,N/A,,Clear,0,2013-05-02 07:55:00
2:55 AM,32.0,5.0,32,30.63,10.0,ESE,3.5,-,N/A,,Clear,120,2013-05-02 08:55:00
3:55 AM,28.0,3.9,36,30.64,10.0,Calm,Calm,-,N/A,,Clear,0,2013-05-02 09:55:00
4:55 AM,24.1,3.0,40,30.67,10.0,Calm,Calm,-,N/A,,Clear,0,2013-05-02 10:55:00
5:55 AM,23.0,3.9,44,30.66,10.0,Calm,Calm,-,N/A,,Clear,0,2013-05-02 11:55:00
6:55 AM,24.1,3.9,42,30.67,10.0,Calm,Calm,-,N/A,,Clear,0,2013-05-02 12:55:00
7:55 AM,28.0,8.1,43,30.67,10.0,Calm,Calm,-,N/A,,Clear,0,2013-05-02 13:55:00
8:55 AM,34.0,6.1,31,30.66,10.0,Calm,Calm,-,N/A,,Clear,0,2013-05-02 14:55:00
9:55 AM,39.9,8.1,27,30.63,10.0,NNE,3.5,-,N/A,,Clear,20,2013-05-02 15:55:00
10:55 AM,44.1,7.0,22,30.61,10.0,Calm,Calm,-,N/A,,Clear,0,2013-05-02 16:55:00
11:55 AM,50.0,6.1,17,30.55,10.0,Calm,Calm,-,N/A,,Clear,0,2013-05-02 17:55:00
12:55 PM,54.0,3.9,13,30.50,10.0,Variable,3.5,-,N/A,,Clear,0,2013-05-02 18:55:00
1:55 PM,57.9,1.0,10,30.46,10.0,Calm,Calm,-,N/A,,Clear,0,2013-05-02 19:55:00
2:55 PM,61.0,1.0,9,30.40,10.0,NE,3.5,-,N/A,,Clear,50,2013-05-02 20:55:00
3:55 PM,62.1,1.0,9,30.38,10.0,Calm,Calm,-,N/A,,Clear,0,2013-05-02 21:55:00
4:55 PM,64.9,1.0,8,30.33,10.0,East,3.5,-,N/A,,Clear,100,2013-05-02 22:55:00
5:55 PM,66.9,1.0,7,30.31,10.0,East,3.5,-,N/A,,Clear,100,2013-05-02 23:55:00
6:55 PM,66.0,1.9,8,30.29,10.0,Calm,Calm,-,N/A,,Clear,0,2013-05-03 00:55:00
7:55 PM,63.0,5.0,10,30.27,10.0,West,10.4,-,N/A,,Clear,280,2013-05-03 01:55:00
8:55 PM,57.9,3.9,11,30.27,10.0,West,10.4,-,N/A,,Clear,280,2013-05-03 02:55:00
9:55 PM,48.9,8.1,19,30.29,10.0,Calm,Calm,-,N/A,,Clear,0,2013-05-03 03:55:00
10:55 PM,46.9,8.1,21,30.29,10.0,Calm,Calm,-,N/A,,Clear,0,2013-05-03 04:55:00
11:55 PM,46.0,10.0,23,30.27,10.0,Calm,Calm,-,N/A,,Clear,0,2013-05-03 05:55:00